Location: Peach Mountain Observatory
(42.3967°N, 83.9367°W)
Time: 07:01:47
(UTC-04:00)

X-37B - Visible Passes

Search period start: 20 September 2020 00:00
Search period end: 30 September 2020 00:00
Orbit: 386 x 387 km, 45.0° (Epoch: 18 September)

Date Brightness Start Highest point End Pass type
(mag) Time Alt. Az. Time Alt. Az. Time Alt. Az.
20 Sep 2.1 05:14:40 36° NE 05:14:40 36° NE 05:16:53 10° E visible
20 Sep 0.6 06:47:20 10° WNW 06:50:32 79° SSW 06:53:43 10° ESE visible
21 Sep 0.7 05:51:11 47° NW 05:51:56 72° NNE 05:55:07 10° E visible
22 Sep 3.4 04:55:29 18° E 04:55:29 18° E 04:56:27 10° E visible
22 Sep 0.9 06:27:46 17° W 06:29:56 48° SSW 06:33:01 10° SE visible
23 Sep 1.4 05:32:12 46° ESE 05:32:12 46° ESE 05:34:34 10° ESE visible
24 Sep 1.6 06:09:04 28° SW 06:09:16 28° SSW 06:12:04 10° SSE visible
25 Sep 3.6 05:13:47 11° SE 05:13:47 11° SE 05:13:53 10° SE visible
